Richlands, VA

5:13 AM EDT on June 28, 2017 (GMT -0400)
Tazewell County

Weather History for KJFZ - December, 2013

Change the Weather History Date:

Tuesday, December 17, 2013

  Actual Average (KBLF) Record (KBLF)
Temperature  
Mean Temperature 40 °F -  
Max Temperature 48 °F 39 °F 66 °F (2006)
Min Temperature 32 °F 24 °F -2 °F (1989)
Degree Days  
Heating Degree Days 24    
Moisture  
Dew Point 31 °F    
Average Humidity 70    
Maximum Humidity 93    
Minimum Humidity 55    
Precipitation  
Precipitation 0.06 in - - ()
Sea Level Pressure  
Sea Level Pressure 30.02 in    
Wind  
Wind Speed 11 mph (WSW)    
Max Wind Speed 18 mph    
Max Gust Speed 31 mph    
Visibility 10 miles    
Events Rain    
Averages and records for this station are not official NWS values.
T = Trace of Precipitation, MM = Missing Value Source: NWS Daily Summary

Daily Weather History Graph

Daily Weather History Graph

Search for Another Location

Airport or City:

Trip Planner

Search our weather history database for the weather conditions in past years. The results will help you decide how hot, cold, wet, or windy it might be!

Date:

Astronomy

Dec. 17, 2013 Rise Set
Actual Time 7:34 AM EST 5:12 PM EST
Civil Twilight 7:05 AM EST 5:41 PM EST
Nautical Twilight 6:33 AM EST 6:13 PM EST
Astronomical Twilight 6:01 AM EST 6:45 PM EST
Moon 5:49 PM EST (12/17) 7:31 AM EST (12/17)
Length of Visible Light 10h 35m
Length of Day
9h 37m
Full, 100% of the Moon is Illuminated
Dec 17
Full
Dec 25
Last Quarter
Jan 1
New
Jan 7
First Quarter
Jan 15
Full

Hourly Weather History & Observations

Time (EST) Temp. Windchill Dew Point Humidity Pressure Visibility Wind Dir Wind Speed Gust Speed Precip Events Conditions
12:15 AM 40.5 °F 31.5 °F 32.0 °F 72% 30.08 in 10.0 mi WSW 18.4 mph 24.2 mph N/A   Clear
12:55 AM 40.1 °F 32.0 °F 32.0 °F 73% 30.07 in 10.0 mi WSW 15.0 mph 21.9 mph N/A   Clear
1:15 AM 40.1 °F 33.2 °F 32.0 °F 73% 30.07 in 10.0 mi WSW 11.5 mph 21.9 mph N/A   Clear
1:35 AM 39.6 °F 33.0 °F 32.0 °F 74% 30.06 in 10.0 mi WSW 10.4 mph - N/A   Clear
1:55 AM 39.2 °F 32.5 °F 32.0 °F 75% 30.06 in 10.0 mi SW 10.4 mph - N/A   Clear
2:15 AM 39.9 °F 33.4 °F 32.0 °F 73% 30.05 in 10.0 mi WSW 10.4 mph 17.3 mph N/A   Mostly Cloudy
2:35 AM 40.1 °F 33.6 °F 32.0 °F 73% 30.05 in 10.0 mi WSW 10.4 mph 20.7 mph N/A   Overcast
2:55 AM 40.5 °F 35.1 °F 32.0 °F 72% 30.05 in 10.0 mi WSW 8.1 mph - N/A   Overcast
3:15 AM 40.1 °F 36.1 °F 31.8 °F 72% 30.05 in 10.0 mi WSW 5.8 mph - N/A   Overcast
3:35 AM 39.9 °F 32.9 °F 32.0 °F 73% 30.05 in 10.0 mi WSW 11.5 mph 24.2 mph N/A   Overcast
3:55 AM 40.1 °F 33.6 °F 31.8 °F 72% 30.04 in 10.0 mi SW 10.4 mph 18.4 mph N/A   Overcast
4:15 AM 39.7 °F 32.7 °F 31.6 °F 73% 30.04 in 10.0 mi WSW 11.5 mph 17.3 mph N/A   Overcast
4:35 AM 40.1 °F 34.7 °F 31.6 °F 72% 30.04 in 10.0 mi WSW 8.1 mph - N/A   Overcast
4:55 AM 39.6 °F 32.1 °F 31.5 °F 73% 30.04 in 10.0 mi WSW 12.7 mph 18.4 mph N/A   Scattered Clouds
5:15 AM 40.1 °F 32.7 °F 31.1 °F 70% 30.04 in 10.0 mi WSW 12.7 mph 19.6 mph N/A   Clear
5:35 AM 40.1 °F 32.7 °F 30.9 °F 70% 30.04 in 10.0 mi WSW 12.7 mph 21.9 mph N/A   Scattered Clouds
5:55 AM 40.1 °F 31.3 °F 30.7 °F 69% 30.04 in 10.0 mi WSW 17.3 mph 26.5 mph N/A   Scattered Clouds
6:15 AM 40.1 °F 32.0 °F 30.7 °F 69% 30.04 in 10.0 mi WSW 15.0 mph 21.9 mph N/A   Scattered Clouds
6:35 AM 40.1 °F 32.4 °F 30.6 °F 69% 30.05 in 10.0 mi West 13.8 mph 21.9 mph N/A   Mostly Cloudy
6:55 AM 40.1 °F 32.7 °F 30.4 °F 68% 30.05 in 10.0 mi WSW 12.7 mph 21.9 mph N/A   Overcast
7:15 AM 39.6 °F 33.0 °F 30.6 °F 70% 30.05 in 10.0 mi WSW 10.4 mph - N/A   Overcast
7:35 AM 39.6 °F 32.5 °F 30.4 °F 70% 30.05 in 10.0 mi WSW 11.5 mph 17.3 mph N/A   Overcast
7:55 AM 39.6 °F 32.1 °F 30.6 °F 70% 30.06 in 10.0 mi WSW 12.7 mph 17.3 mph N/A   Overcast
8:15 AM 39.7 °F 33.2 °F 30.2 °F 69% 30.05 in 10.0 mi WSW 10.4 mph 18.4 mph N/A   Overcast
8:35 AM 39.7 °F 34.3 °F 30.2 °F 69% 30.05 in 10.0 mi SW 8.1 mph - N/A   Overcast
8:55 AM 40.1 °F 34.1 °F 30.2 °F 68% 30.05 in 10.0 mi SW 9.2 mph 18.4 mph N/A   Overcast
9:15 AM 40.8 °F 34.1 °F 30.6 °F 67% 30.05 in 10.0 mi WSW 11.5 mph 18.4 mph N/A   Overcast
9:35 AM 41.2 °F 34.1 °F 30.7 °F 66% 30.05 in 10.0 mi WSW 12.7 mph 20.7 mph N/A   Overcast
9:55 AM 41.2 °F 34.1 °F 30.9 °F 67% 30.06 in 10.0 mi West 12.7 mph 28.8 mph N/A   Overcast
10:15 AM 40.6 °F 35.4 °F 31.3 °F 69% 30.07 in 10.0 mi West 8.1 mph - N/A   Overcast
10:35 AM 41.5 °F 36.4 °F 31.6 °F 68% 30.07 in 10.0 mi WSW 8.1 mph 20.7 mph N/A   Overcast
10:55 AM 42.3 °F 35.9 °F 31.8 °F 67% 30.06 in 10.0 mi SW 11.5 mph - N/A   Overcast
11:15 AM 42.4 °F 37.5 °F 31.8 °F 66% 30.05 in 10.0 mi SW 8.1 mph - N/A   Overcast
11:35 AM 42.6 °F 37.2 °F 31.6 °F 65% 30.03 in 10.0 mi SW 9.2 mph - N/A   Overcast
11:55 AM 44.6 °F 38.8 °F 33.3 °F 64% 30.01 in 10.0 mi WSW 11.5 mph - N/A   Overcast
12:15 PM 44.2 °F 39.2 °F 32.0 °F 62% 30.00 in 10.0 mi SW 9.2 mph 20.7 mph N/A   Overcast
12:35 PM 44.1 °F 38.1 °F 32.2 °F 63% 29.98 in 10.0 mi SW 11.5 mph - N/A   Overcast
12:55 PM 45.7 °F 39.8 °F 33.4 °F 62% 29.97 in 10.0 mi WSW 12.7 mph 16.1 mph N/A   Mostly Cloudy
1:15 PM 45.3 °F 39.3 °F 32.7 °F 61% 29.96 in 10.0 mi SW 12.7 mph 19.6 mph N/A   Mostly Cloudy
1:35 PM 46.2 °F 40.8 °F 33.1 °F 60% 29.95 in 10.0 mi SW 11.5 mph 21.9 mph N/A   Mostly Cloudy
1:55 PM 47.7 °F - 34.0 °F 59% 29.94 in 10.0 mi West 6.9 mph - N/A   Scattered Clouds
2:15 PM 47.7 °F - 33.3 °F 57% 29.94 in 10.0 mi West 4.6 mph - N/A   Scattered Clouds
2:35 PM 48.4 °F - 33.6 °F 57% 29.93 in 10.0 mi WSW 5.8 mph - N/A   Scattered Clouds
2:55 PM 47.8 °F - 32.5 °F 55% 29.93 in 10.0 mi SW 6.9 mph - N/A   Mostly Cloudy
3:15 PM 47.1 °F - 32.2 °F 56% 29.92 in 10.0 mi SW 9.2 mph 16.1 mph N/A   Overcast
3:35 PM 46.4 °F 42.4 °F 32.2 °F 58% 29.92 in 10.0 mi SW 8.1 mph - N/A   Mostly Cloudy
3:55 PM 46.9 °F - 32.7 °F 58% 29.91 in 10.0 mi SW 6.9 mph - N/A   Mostly Cloudy
4:15 PM 46.6 °F - 32.0 °F 57% 29.91 in 10.0 mi SW 9.2 mph 17.3 mph N/A   Mostly Cloudy
4:35 PM 46.4 °F 43.5 °F 32.2 °F 58% 29.91 in 10.0 mi West 5.8 mph - N/A   Mostly Cloudy
4:55 PM 46.0 °F 42.5 °F 32.7 °F 60% 29.90 in 10.0 mi West 6.9 mph - N/A   Overcast
5:15 PM 45.1 °F 41.4 °F 34.5 °F 66% 29.91 in 10.0 mi WNW 6.9 mph - N/A Rain Light Rain
5:35 PM 39.9 °F 33.4 °F 36.5 °F 88% 29.93 in 3.0 mi NNW 10.4 mph 24.2 mph 0.02 in Rain Rain
5:55 PM 38.8 °F 33.2 °F 36.7 °F 92% 29.96 in 5.0 mi NW 8.1 mph 17.3 mph 0.04 in Rain Rain
6:15 PM 38.8 °F 33.8 °F 36.9 °F 93% 29.97 in 10.0 mi West 6.9 mph - N/A Rain Light Rain
6:35 PM 39.4 °F 32.7 °F 36.7 °F 90% 29.98 in 10.0 mi West 10.4 mph 19.6 mph 0.01 in Rain Light Rain
6:55 PM 38.7 °F 31.4 °F 36.5 °F 92% 29.98 in 5.0 mi WNW 11.5 mph 17.3 mph 0.02 in Rain Rain
7:15 PM 37.9 °F 32.1 °F 36.0 °F 93% 30.00 in 10.0 mi NW 8.1 mph 17.3 mph N/A Rain Light Rain
7:35 PM 37.4 °F 30.8 °F 35.1 °F 91% 30.00 in 10.0 mi WNW 9.2 mph - N/A   Overcast
7:55 PM 37.6 °F 30.5 °F 34.0 °F 87% 30.01 in 10.0 mi NW 10.4 mph 20.7 mph N/A   Overcast
8:15 PM 37.6 °F 31.0 °F 32.9 °F 83% 30.01 in 10.0 mi WNW 9.2 mph 20.7 mph N/A   Overcast
8:35 PM 37.2 °F 29.6 °F 32.0 °F 81% 30.01 in 10.0 mi WNW 11.5 mph 20.7 mph N/A   Overcast
8:55 PM 36.9 °F 29.1 °F 31.3 °F 80% 30.01 in 10.0 mi NW 11.5 mph 19.6 mph N/A   Overcast
9:15 PM 36.3 °F 28.0 °F 29.3 °F 76% 30.03 in 10.0 mi WNW 12.7 mph 23.0 mph N/A   Overcast
9:35 PM 35.6 °F 26.6 °F 26.4 °F 69% 30.04 in 10.0 mi West 13.8 mph 27.6 mph N/A   Mostly Cloudy
9:55 PM 34.7 °F 25.5 °F 25.3 °F 69% 30.05 in 10.0 mi WNW 13.8 mph 31.1 mph N/A   Scattered Clouds
10:15 PM 34.7 °F 26.9 °F 23.9 °F 65% 30.06 in 10.0 mi West 10.4 mph 20.7 mph N/A   Mostly Cloudy
10:35 PM 34.0 °F 28.8 °F 23.2 °F 65% 30.07 in 10.0 mi West 5.8 mph 10.4 mph N/A   Overcast
10:55 PM 33.8 °F 26.4 °F 21.6 °F 61% 30.08 in 10.0 mi West 9.2 mph - N/A   Overcast
11:15 PM 33.3 °F 24.1 °F 21.2 °F 61% 30.09 in 10.0 mi West 12.7 mph - N/A   Overcast
11:35 PM 33.1 °F 25.5 °F 21.6 °F 63% 30.10 in 10.0 mi West 9.2 mph 19.6 mph N/A   Overcast
11:55 PM 32.9 °F 24.1 °F 22.1 °F 65% 30.10 in 10.0 mi WNW 11.5 mph 19.6 mph N/A   Overcast